loading
DOY 203 | 2024-07-21T10:38:29Z
Showing default

ALOS-4, 60182

Orbit data source: Space-Track

ALOS-4, 60182 is a payload satellite owned by JAXA (JP) in SSO that was launched on Mon, 01 Jul 2024 UTC via a H3-22S launch vehicle from the Tanegashima Space Center (TNSTA). Payloads include a variety of satellites, spacecraft, and rockets equipped with specific instruments for various scientific and technological missions. These include communications satellites like Starlink; space stations such as the ISS; scientific satellites like the Hubble; Earth observation satellites from companies like Planet Labs, Umbra, and HawkEye 360; GPS; miniature CubeSats for education and research; and military/defense satellites.

Loading next visibility...
Loading greatness...
ALOS-4 details
NORAD ID60182
COSPAR ID
2024-123A
Orbit
SSO
Last TLE update5 hours ago
Origin
Flag of JPJAXA (JP / JPN)
ManufacturerMELCO
BusALOS
MotorAOCS
Mass2,900 kg wet, ~2,500 kg dry
Launch date (UTC)
2024-07-01 (3 weeks ago)
Launch vehicle
H3-22S
Launch site
Tanegashima Space Center (TNSTA)
Object type
Payload
Rocket body
Debris
Radar Cross SectionLarge (>1 m²)
Predictive object data (real-time)
Latitude52.22846°
Longitude112.44298°
Altitude637.986 km
Speed7.545 km/s
Apparent Right ascension10h 14m 12s
Apparent Declination9° 39' 41"
Sunlit
Object is in daylight
Predictive observer data (real-time)
Local Sidereal Time23:36:46
Azimuth25.745° NE
Elevation-36.861°
Doppler factor1
Orbital elements
Apogee629.053 km
Perigee626.336 km
Semi-major axis7,005.832 km
Eccentricity0.0001939
Inclination97.9222°
RAAN299.3924°
Arg. of periapsis95.803°
True anomaly264.31819°
Mean anomaly264.3403°
Mean motion3.70129 °/min
BSTAR0.00062068
Period97.26 mins
Definitive object data (Epoch: 2024-07-21T05:11:58.756Z)
Latitude0.00003°
Longitude-78.06936°
Altitude633.807 km
Speed7.541 km/s
True Right ascension19h 57m 34s
True Declination0° 00' 00"
Sunlit
Object was in full shadow at TLE epoch
TLE from 5 hours ago
0 ALOS-4
1 60182U 24123A   24203.21665227  .00004599  00000-0  62068-3 0  9993
2 60182  97.9222 299.3924 0001939  95.8030 264.3403 14.79579336  2979
Epoch: 2024-07-21T05:11Z
No data available
Other satellites on launch #123 in the year 2024 (2024-07-01 UTC)

ALOS-4 Visibility forecast

Observer location: 39.9160978°, -105.1181434

ALOS-4 is not visible in the next 10 days
Span
Click to sort rows by Start time (UTC) header in descending order
Start Az.
Max El. time (UTC)
Max El. Az.
Max El.
End time (UTC)
End Az.